Louisville Bowman, KY

6:20 AM EDT on August 26, 2019 (GMT -0400)
Bowman

Weather History for KLOU - May, 2019

Change the Weather History Date:

Wednesday, May 29, 2019

  Actual Average Record
Temperature  
Mean Temperature 74 °F 70 °F  
Max Temperature 80 °F 80 °F 92 °F (1959)
Min Temperature 68 °F 60 °F 43 °F (1965)
Degree Days  
Heating Degree Days 0 1  
Month to date heating degree days 47 72  
Since 1 July heating degree days 4101 4263  
Cooling Degree Days 9 6  
Month to date cooling degree days 166 101  
Year to date cooling degree days 183 135  
Growing Degree Days 24 (Base 50)    
Moisture  
Dew Point 66 °F    
Average Humidity 76    
Maximum Humidity 90    
Minimum Humidity 62    
Precipitation  
Precipitation 0.94 in 0.16 in 3.61 in (2012)
Month to date precipitation 4.64 4.84  
Year to date precipitation 28.05 19.64  
Sea Level Pressure  
Sea Level Pressure 29.82 in    
Wind  
Wind Speed 8 mph (SSW)    
Max Wind Speed 17 mph    
Max Gust Speed 30 mph    
Visibility 8 miles    
Events Fog , Rain , Thunderstorm    
T = Trace of Precipitation, MM = Missing Value Source: NWS Daily Summary

Daily Weather History Graph

Daily Weather History Graph

Search for Another Location

Airport or City:

Astronomy

May. 29, 2019 Rise Set
Actual Time 6:22 AM EDT 8:57 PM EDT
Civil Twilight 5:51 AM EDT 9:28 PM EDT
Nautical Twilight 5:13 AM EDT 10:07 PM EDT
Astronomical Twilight 4:30 AM EDT 10:50 PM EDT
Moon 3:55 AM EDT (5/29) 4:10 PM EDT (5/29)
Length of Visible Light 15h 37m
Length of Day
14h 35m
Waning Crescent, 23% of the Moon is Illuminated
May 29
Waning Crescent
Jun 3
New
Jun 10
First Quarter
Jun 17
Full
Jun 25
Last Quarter

Hourly Weather History & Observations

Time (EDT) Temp. Dew Point Humidity Pressure Visibility Wind Dir Wind Speed Gust Speed Precip Events Conditions
12:53 AM 78.1 °F 64.9 °F 64% 29.78 in 10.0 mi South 4.6 mph - N/A   Clear
1:53 AM 78.1 °F 64.9 °F 64% 29.77 in 10.0 mi SSW 8.1 mph - N/A   Clear
2:53 AM 78.1 °F 66.0 °F 66% 29.78 in 10.0 mi SW 6.9 mph - N/A   Mostly Cloudy
3:53 AM 78.1 °F 66.9 °F 68% 29.77 in 10.0 mi SSW 8.1 mph - N/A   Partly Cloudy
4:53 AM 77.0 °F 66.9 °F 71% 29.76 in 10.0 mi South 8.1 mph - 0.00 in   Mostly Cloudy
5:53 AM 78.1 °F 66.9 °F 68% 29.76 in 10.0 mi SSW 10.4 mph - N/A   Partly Cloudy
6:53 AM 77.0 °F 68.0 °F 74% 29.76 in 10.0 mi SSW 9.2 mph - N/A   Clear
7:53 AM 78.1 °F 68.0 °F 71% 29.78 in 10.0 mi SSW 10.4 mph - N/A   Partly Cloudy
8:53 AM 79.0 °F 69.1 °F 72% 29.79 in 10.0 mi SW 9.2 mph - N/A   Partly Cloudy
9:53 AM 73.9 °F 61.0 °F 64% 29.85 in 9.0 mi NW 12.7 mph 31.1 mph 0.00 in Rain Light Rain
9:56 AM 72.0 °F 63.0 °F 73% 29.87 in 0.8 mi WNW 15.0 mph 31.1 mph 0.10 in Rain Rain
10:03 AM 68.0 °F 64.0 °F 87% 29.88 in 0.5 mi West 6.9 mph 26.5 mph 0.37 in Fog , Rain Heavy Rain
10:11 AM 68.0 °F 64.9 °F 90% 29.86 in 2.0 mi Calm Calm - 0.39 in Rain Rain
10:18 AM 69.1 °F 64.9 °F 87% 29.86 in 9.0 mi NE 3.5 mph - 0.39 in Rain Light Rain
10:53 AM 69.1 °F 64.9 °F 87% 29.86 in 6.0 mi SSW 4.6 mph - 0.42 in Rain Rain
11:53 AM 69.1 °F 64.9 °F 87% 29.85 in 10.0 mi SSW 3.5 mph - 0.09 in Rain Light Rain
12:02 PM 69.1 °F 66.0 °F 90% 29.89 in 10.0 mi WSW 6.9 mph - 0.00 in Rain , Thunderstorm Light Rain
12:22 PM 69.1 °F 66.0 °F 90% 29.89 in 4.0 mi SW 3.5 mph - 0.06 in Rain , Thunderstorm Thunderstorms and Rain
12:42 PM 69.1 °F 64.9 °F 87% 29.87 in 5.0 mi Calm Calm - 0.12 in Rain Rain
12:53 PM 70.0 °F 66.0 °F 87% 29.85 in 6.0 mi SSE 5.8 mph - 0.14 in Rain Light Rain
1:19 PM 69.1 °F 66.0 °F 90% 29.88 in 7.0 mi South 8.1 mph - 0.04 in Rain , Thunderstorm Thunderstorms and Rain
1:34 PM 69.1 °F 66.0 °F 90% 29.89 in 6.0 mi South 9.2 mph - 0.08 in Rain , Thunderstorm Rain
1:53 PM 69.1 °F 66.0 °F 90% 29.91 in 3.0 mi SSW 15.0 mph - 0.14 in Rain , Thunderstorm Heavy Rain
2:29 PM 69.1 °F 64.9 °F 87% 29.84 in 7.0 mi ESE 8.1 mph - 0.13 in Rain Rain
2:53 PM 70.0 °F 64.9 °F 84% 29.81 in 10.0 mi SSE 3.5 mph - 0.15 in Rain Light Rain
3:53 PM 73.0 °F 66.9 °F 81% 29.80 in 10.0 mi South 6.9 mph - 0.00 in   Overcast
4:53 PM 77.0 °F 66.9 °F 71% 29.80 in 10.0 mi SSW 8.1 mph - N/A   Mostly Cloudy
5:53 PM 79.0 °F 66.9 °F 66% 29.78 in 10.0 mi SW 10.4 mph - N/A   Clear
6:53 PM 79.0 °F 69.1 °F 72% 29.78 in 10.0 mi South 9.2 mph - N/A   Clear
7:53 PM 77.0 °F 68.0 °F 74% 29.77 in 10.0 mi South 6.9 mph - N/A   Clear
8:53 PM 75.0 °F 68.0 °F 79% 29.80 in 10.0 mi South 8.1 mph - N/A   Clear
9:53 PM 73.9 °F 68.0 °F 82% 29.81 in 10.0 mi SSE 5.8 mph - N/A   Clear
10:53 PM 73.0 °F 68.0 °F 84% 29.83 in 10.0 mi South 6.9 mph - N/A   Clear
11:53 PM 73.0 °F 66.9 °F 81% 29.83 in 10.0 mi SW 3.5 mph - 0.00 in   Scattered Clouds